Location: Newark
(44.2764°N, 5.2753°E)
Time: 10:29:32
(UTC+00:00)

ISS - Pass Details

Date: 20 January 2020
Orbit: 416 x 422 km, 51.6° (Epoch: 20 February)

Event Time Altitude Azimuth Distance (km) Brightness Sun altitude
Rises 18:51:38 0° 231° (SW) 2,366 0.9 -24.8°
Reaches altitude 10° 18:53:44 10° 229° (SW) 1,503 -0.3 -25.1°
Enters shadow 18:55:16 25° 224° (SW) 901 -1.7 -25.4°
